EW2295 Weather Reports


Display with metric or nautical units.
time (UTC)temp
F
wind
direction
speed
MPH
gust
MPH
rain 1hr
in
rain 24hr
in
rain mn
in
humidity
%
barometer
mb
20260510134559 66 5 2.0 11.0 0.00 0.00 0.00 58 1011.9
20260510134049 66 0 1.0 9.0 0.00 0.00 0.00 58 1011.9
20260510133547 66 342 0.0 8.0 0.00 0.00 0.00 57 1011.9
20260510133054 66 0 0.0 8.0 0.00 0.00 0.00 58 1012.1
20260510132545 65 0 2.0 6.0 0.00 0.00 0.00 58 1012.1
20260510132046 65 0 0.0 6.0 0.00 0.00 0.00 55 1012.1
20260510131553 65 0 0.0 5.0 0.00 0.00 0.00 56 1012.3
20260510131045 66 0 0.0 5.0 0.00 0.00 0.00 55 1012.3
20260510130542 66 0 0.0 3.0 0.00 0.00 0.00 55 1012.3
20260510130059 66 0 0.0 0.0 0.00 0.00 0.00 55 1012.5
20260510125548 66 0 0.0 0.0 0.00 0.00 0.00 55 1012.5
20260510125044 65 0 0.0 3.0 0.00 0.00 0.00 56 1012.7
20260510124556 65 0 0.0 3.0 0.00 0.00 0.00 55 1012.6
20260510124046 65 0 0.0 4.0 0.00 0.00 0.00 54 1012.7
20260510123546 66 0 0.0 4.0 0.00 0.00 0.00 54 1012.7
20260510123050 66 0 0.0 6.0 0.00 0.00 0.00 55 1012.7
20260510122544 66 0 0.0 8.0 0.00 0.00 0.00 54 1012.8
20260510122045 66 0 1.0 8.0 0.00 0.00 0.00 54 1012.8
20260510121551 66 0 0.0 6.0 0.00 0.00 0.00 54 1012.8
20260510121049 66 0 0.0 6.0 0.00 0.00 0.00 56 1012.8
20260510120545 66 0 1.0 6.0 0.00 0.00 0.00 56 1012.9
20260510120051 67 0 1.0 8.0 0.00 0.00 0.00 56 1013.0
20260510115542 67 350 2.0 8.0 0.00 0.00 0.00 58 1013.1
20260510115042 66 26 1.0 9.0 0.00 0.00 0.00 56 1013.1
20260510114548 66 0 0.0 9.0 0.00 0.00 0.00 56 1013.1
20260510114044 66 355 0.0 10.0 0.00 0.00 0.00 55 1013.2
20260510113545 66 0 1.0 10.0 0.00 0.00 0.00 57 1013.2
20260510113054 66 17 0.0 8.0 0.00 0.00 0.00 57 1013.2
20260510112542 66 311 0.0 8.0 0.00 0.00 0.00 58 1013.2
20260510112042 65 0 2.0 8.0 0.00 0.00 0.00 57 1013.3
20260510111555 64 0 1.0 6.0 0.00 0.00 0.00 60 1013.4
20260510111041 65 0 0.0 6.0 0.00 0.00 0.00 58 1013.5
20260510110541 65 0 0.0 6.0 0.00 0.00 0.00 58 1013.5
20260510110050 63 0 0.0 6.0 0.00 0.00 0.00 58 1013.6
20260510105546 64 0 0.0 6.0 0.00 0.00 0.00 58 1013.5
20260510105043 63 344 0.0 3.0 0.00 0.00 0.00 61 1013.7
20260510104557 63 0 0.0 9.0 0.00 0.00 0.00 57 1013.8
20260510104049 64 352 1.0 9.0 0.00 0.00 0.00 57 1013.8
20260510103545 64 0 0.0 4.0 0.00 0.00 0.00 58 1013.8
20260510103053 63 0 0.0 4.0 0.00 0.00 0.00 59 1013.9
20260510102545 64 0 0.0 10.0 0.00 0.00 0.00 58 1013.9
20260510102045 64 0 0.0 10.0 0.00 0.00 0.00 58 1014.0
20260510101550 64 0 2.0 10.0 0.00 0.00 0.00 58 1013.9
20260510101047 64 0 0.0 4.0 0.00 0.00 0.00 62 1013.9
20260510100545 64 0 0.0 5.0 0.00 0.00 0.00 60 1013.9
20260510100050 64 0 0.0 5.0 0.00 0.00 0.00 60 1013.9
20260510095545 64 0 0.0 6.0 0.00 0.00 0.00 61 1014.0
20260510095042 63 0 0.0 9.0 0.00 0.00 0.00 62 1014.1
20260510094554 63 5 0.0 9.0 0.00 0.00 0.00 66 1014.2
20260510094044 63 5 1.0 9.0 0.00 0.00 0.00 64 1014.2
20260510093542 63 0 0.0 5.0 0.00 0.00 0.00 65 1014.2
20260510093104 63 0 0.0 0.0 0.00 0.00 0.00 65 1014.2
20260510092544 63 0 0.0 5.0 0.00 0.00 0.00 67 1014.2
20260510092042 62 0 0.0 5.0 0.00 0.00 0.00 66 1014.2
20260510091554 62 9 0.0 4.0 0.00 0.00 0.00 67 1014.3
20260510091044 63 0 0.0 5.0 0.00 0.00 0.00 68 1014.2
20260510090543 62 13 0.0 5.0 0.00 0.00 0.00 69 1014.1
20260510090052 61 0 0.0 8.0 0.00 0.00 0.00 68 1014.3
20260510085543 62 0 0.0 8.0 0.00 0.00 0.00 67 1014.2
20260510085042 62 0 0.0 6.0 0.00 0.00 0.00 72 1014.3
20260510084559 61 0 1.0 6.0 0.00 0.00 0.00 71 1014.2
20260510084042 61 0 0.0 5.0 0.00 0.00 0.00 71 1014.4
20260510083545 61 360 0.0 6.0 0.00 0.00 0.00 71 1014.3
20260510083055 60 0 0.0 8.0 0.00 0.00 0.00 72 1014.3
20260510082541 60 0 1.0 8.0 0.00 0.00 0.00 72 1014.3
20260510082047 60 5 2.0 6.0 0.00 0.00 0.00 73 1014.4
20260510081624 60 0 0.0 5.0 0.00 0.00 0.00 73 1014.4
20260510081042 60 0 0.0 5.0 0.00 0.00 0.00 76 1014.5
20260510080542 59 0 0.0 2.0 0.00 0.00 0.00 76 1014.4
20260510080051 59 0 0.0 1.0 0.00 0.00 0.00 77 1014.5
20260510075544 59 0 0.0 0.0 0.00 0.00 0.00 77 1014.5
20260510075045 59 0 0.0 0.0 0.00 0.00 0.00 77 1014.6
20260510074556 58 0 0.0 5.0 0.00 0.00 0.00 78 1014.6
20260510074048 58 0 0.0 5.0 0.00 0.00 0.00 78 1014.7
20260510073545 58 29 0.0 0.0 0.00 0.00 0.00 80 1014.5
20260510073103 57 0 0.0 0.0 0.00 0.00 0.00 80 1014.5
20260510072545 56 0 0.0 0.0 0.00 0.00 0.00 80 1014.5
20260510072047 56 0 0.0 0.0 0.00 0.00 0.00 81 1014.4
20260510071557 56 0 0.0 0.0 0.00 0.00 0.00 83 1014.4
20260510071042 56 0 0.0 0.0 0.00 0.00 0.00 85 1014.4
20260510070542 56 0 0.0 0.0 0.00 0.00 0.00 86 1014.5
20260510070054 55 0 0.0 0.0 0.00 0.00 0.00 87 1014.5
20260510065542 55 0 0.0 0.0 0.00 0.00 0.00 89 1014.6
20260510065042 55 0 0.0 0.0 0.00 0.00 0.00 91 1014.5
20260510064556 54 0 0.0 0.0 0.00 0.00 0.00 92 1014.4
20260510064044 54 0 0.0 0.0 0.00 0.00 0.00 93 1014.4
20260510063545 53 0 0.0 0.0 0.00 0.00 0.00 94 1014.3
20260510063049 52 0 0.0 0.0 0.00 0.00 0.00 94 1014.4
20260510062542 52 0 0.0 0.0 0.00 0.00 0.00 95 1014.4
20260510062043 52 0 0.0 0.0 0.00 0.00 0.00 95 1014.3
20260510061557 51 0 0.0 0.0 0.00 0.00 0.00 96 1014.2
20260510061045 51 0 0.0 0.0 0.00 0.00 0.00 96 1014.4
20260510060543 51 0 0.0 0.0 0.00 0.00 0.00 96 1014.5
20260510060056 50 0 0.0 0.0 0.00 0.00 0.00 96 1014.5
20260510055542 50 0 0.0 0.0 0.00 0.00 0.00 96 1014.6
20260510055045 49 0 0.0 0.0 0.00 0.00 0.00 96 1014.6
20260510054559 49 0 0.0 0.0 0.00 0.00 0.00 96 1014.7
20260510054043 48 0 0.0 0.0 0.00 0.00 0.00 96 1014.8
20260510053543 48 0 0.0 0.0 0.00 0.00 0.00 96 1014.8
20260510053107 48 0 0.0 0.0 0.00 0.00 0.00 96 1014.6
20260510052544 47 0 0.0 0.0 0.00 0.00 0.00 96 1014.7
20260510052047 47 0 0.0 0.0 0.00 0.00 0.00 96 1014.8
20260510051602 47 0 0.0 0.0 0.00 0.00 0.00 95 1014.8
20260510051042 46 0 0.0 0.0 0.00 0.00 0.00 95 1014.7
20260510050542 46 0 0.0 0.0 0.00 0.00 0.00 95 1014.7
20260510050111 46 0 0.0 0.0 0.00 0.00 0.00 95 1014.7
20260510045546 46 0 0.0 0.0 0.00 0.00 0.00 95 1014.8
20260510045046 46 0 0.0 0.0 0.00 0.00 0.00 95 1014.7
20260510044605 46 0 0.0 0.0 0.00 0.00 0.00 95 1014.7
20260510044044 46 0 0.0 0.0 0.00 0.00 0.00 95 1014.8
20260510043545 46 0 0.0 0.0 0.00 0.00 0.00 95 1014.7
20260510043056 46 0 0.0 0.0 0.00 0.00 0.00 95 1014.8
20260510042542 46 0 0.0 0.0 0.00 0.00 0.00 95 1014.9
20260510042042 46 0 0.0 0.0 0.00 0.00 0.00 95 1014.8
20260510041602 46 0 0.0 0.0 0.00 0.00 0.00 95 1014.8
20260510041043 45 0 0.0 0.0 0.00 0.00 0.00 95 1014.8
20260510040542 45 0 0.0 0.0 0.00 0.00 0.00 95 1014.9
20260510040055 45 0 0.0 0.0 0.00 0.00 0.00 95 1014.9
20260510035545 45 0 0.0 0.0 0.00 0.00 0.00 95 1014.8
20260510035042 46 0 0.0 0.0 0.00 0.00 0.00 95 1014.8
20260510034557 46 0 0.0 0.0 0.00 0.00 0.00 95 1014.7
20260510034043 46 0 0.0 0.0 0.00 0.00 0.00 95 1014.8
20260510033547 46 0 0.0 0.0 0.00 0.00 0.00 95 1014.6
20260510033107 46 0 0.0 0.0 0.00 0.00 0.00 95 1014.7
20260510032546 46 0 0.0 0.0 0.00 0.00 0.00 95 1014.8
20260510032045 47 0 0.0 0.0 0.00 0.00 0.00 95 1014.9
20260510031551 47 0 0.0 0.0 0.00 0.00 0.00 95 1015.0
20260510031042 47 0 0.0 0.0 0.00 0.00 0.00 95 1014.9
20260510030545 47 0 0.0 0.0 0.00 0.00 0.00 95 1014.9
20260510030110 47 0 0.0 0.0 0.00 0.00 0.00 95 1015.1
20260510025544 46 0 0.0 0.0 0.00 0.00 0.00 95 1015.2
20260510025042 46 0 0.0 0.0 0.00 0.00 0.00 94 1015.2
20260510024547 46 0 0.0 0.0 0.00 0.00 0.00 94 1015.2
20260510024043 46 0 0.0 0.0 0.00 0.00 0.00 94 1015.2
20260510023542 46 0 0.0 0.0 0.00 0.00 0.00 94 1015.1
20260510023049 46 0 0.0 0.0 0.00 0.00 0.00 94 1015.2
20260510022542 46 0 0.0 0.0 0.00 0.00 0.00 94 1015.1
20260510022042 46 0 0.0 0.0 0.00 0.00 0.00 94 1015.0
20260510021553 47 0 0.0 0.0 0.00 0.00 0.00 94 1015.2
20260510021041 46 0 0.0 0.0 0.00 0.00 0.00 94 1015.2
20260510020542 47 0 0.0 0.0 0.00 0.00 0.00 94 1015.1
20260510020051 47 0 0.0 0.0 0.00 0.00 0.00 94 1015.3
20260510015541 47 0 0.0 0.0 0.00 0.00 0.00 94 1015.3
20260510015042 47 0 0.0 0.0 0.00 0.00 0.00 94 1015.2
20260510014602 47 0 0.0 0.0 0.00 0.00 0.00 94 1015.3
20260510014042 47 0 0.0 0.0 0.00 0.00 0.00 94 1015.3
20260510013545 47 0 0.0 0.0 0.00 0.00 0.00 94 1015.3
20260510013050 48 0 0.0 0.0 0.00 0.00 0.00 94 1015.3
20260510012541 48 0 0.0 0.0 0.00 0.00 0.00 94 1015.3
20260510012042 48 0 0.0 0.0 0.00 0.00 0.00 94 1015.4
20260510011554 48 0 0.0 0.0 0.00 0.00 0.00 94 1015.5
20260510011043 48 0 0.0 0.0 0.00 0.00 0.00 94 1015.4
20260510010542 48 0 0.0 0.0 0.00 0.00 0.00 94 1015.4
20260510010050 48 0 0.0 0.0 0.00 0.00 0.00 94 1015.5
20260510005542 48 0 0.0 0.0 0.00 0.00 0.00 94 1015.4
20260510005042 48 0 0.0 0.0 0.00 0.00 0.00 94 1015.6
20260510004551 48 0 0.0 0.0 0.00 0.00 0.00 94 1015.4
20260510004042 48 0 0.0 0.0 0.00 0.00 0.00 94 1015.6
20260510003542 48 0 0.0 0.0 0.00 0.00 0.00 94 1015.6
20260510003054 48 0 0.0 0.0 0.00 0.00 0.00 94 1015.7
20260510002544 48 0 0.0 0.0 0.00 0.00 0.00 94 1015.8
20260510002041 48 0 0.0 0.0 0.00 0.00 0.00 94 1015.7
20260510001555 49 0 0.0 0.0 0.00 0.00 0.00 94 1015.8
20260510001045 48 0 0.0 0.0 0.00 0.00 0.00 94 1015.9
20260510000543 48 0 0.0 0.0 0.00 0.00 0.00 94 1015.9
20260510000055 48 0 0.0 0.0 0.00 0.00 0.00 93 1015.9
20260509235541 49 0 0.0 0.0 0.00 0.00 0.00 94 1015.9
20260509235041 49 0 0.0 0.0 0.00 0.00 0.00 94 1016.1
20260509234558 49 0 0.0 0.0 0.00 0.00 0.00 94 1016.1
20260509234044 49 0 0.0 0.0 0.00 0.00 0.00 94 1016.1
20260509233545 49 0 0.0 0.0 0.00 0.00 0.00 94 1016.2
20260509233100 49 0 0.0 0.0 0.00 0.00 0.00 93 1016.2
20260509232542 49 0 0.0 0.0 0.00 0.00 0.00 93 1016.3
20260509232042 48 0 0.0 0.0 0.00 0.00 0.00 93 1016.3
20260509231553 48 0 0.0 0.0 0.00 0.00 0.00 93 1016.3
20260509231041 48 0 0.0 0.0 0.00 0.00 0.00 93 1016.4
20260509230545 48 0 0.0 0.0 0.00 0.00 0.00 93 1016.4
20260509230054 49 0 0.0 0.0 0.00 0.00 0.00 93 1016.4
20260509225542 49 0 0.0 0.0 0.00 0.00 0.00 93 1016.4
20260509225041 49 0 0.0 0.0 0.00 0.00 0.00 92 1016.5
20260509224549 49 0 0.0 0.0 0.00 0.00 0.00 92 1016.4
20260509224046 49 0 0.0 0.0 0.00 0.00 0.00 92 1016.5
20260509223543 49 0 0.0 0.0 0.00 0.00 0.00 92 1016.5
20260509223057 49 0 0.0 0.0 0.00 0.00 0.00 92 1016.6
20260509222541 49 0 0.0 0.0 0.00 0.00 0.00 92 1016.6
20260509222042 50 0 0.0 0.0 0.00 0.00 0.00 92 1016.7
20260509221549 50 0 0.0 0.0 0.00 0.00 0.00 92 1016.7
20260509221043 50 0 0.0 0.0 0.00 0.00 0.00 91 1016.6
20260509220546 50 0 0.0 0.0 0.00 0.00 0.00 91 1016.7
20260509220051 50 0 0.0 0.0 0.00 0.00 0.00 91 1016.6
20260509215542 50 0 0.0 0.0 0.00 0.00 0.00 91 1016.6
20260509215042 50 0 0.0 0.0 0.00 0.00 0.00 91 1016.6
20260509214554 50 0 0.0 0.0 0.00 0.00 0.00 91 1016.7
20260509214042 51 0 0.0 0.0 0.00 0.00 0.00 90 1016.7
20260509213544 51 0 0.0 0.0 0.00 0.00 0.00 90 1016.6
20260509213050 51 0 0.0 0.0 0.00 0.00 0.00 90 1016.7
20260509212543 51 0 0.0 0.0 0.00 0.00 0.00 90 1016.8
20260509212042 51 0 0.0 0.0 0.00 0.00 0.00 90 1016.9
20260509211550 51 0 0.0 0.0 0.00 0.00 0.00 89 1017.0
20260509211045 51 0 0.0 0.0 0.00 0.00 0.00 89 1016.8
20260509210546 52 0 0.0 0.0 0.00 0.00 0.00 89 1016.8
20260509210053 52 0 0.0 0.0 0.00 0.00 0.00 88 1016.7
20260509205543 52 0 0.0 0.0 0.00 0.00 0.00 88 1016.8
20260509205042 52 0 0.0 0.0 0.00 0.00 0.00 87 1016.8
20260509204555 53 0 0.0 0.0 0.00 0.00 0.00 87 1016.7
20260509204043 53 0 0.0 0.0 0.00 0.00 0.00 86 1016.7
20260509203545 53 0 0.0 0.0 0.00 0.00 0.00 86 1016.9
20260509203056 53 0 0.0 0.0 0.00 0.00 0.00 86 1016.9
20260509202542 54 0 0.0 0.0 0.00 0.00 0.00 85 1016.8
20260509202045 54 0 0.0 0.0 0.00 0.00 0.00 86 1017.0
20260509201559 54 0 0.0 0.0 0.00 0.00 0.00 86 1017.0
20260509201042 54 0 0.0 0.0 0.00 0.00 0.00 85 1017.1
20260509200544 54 0 0.0 0.0 0.00 0.00 0.00 84 1016.9
20260509200104 54 0 0.0 0.0 0.00 0.00 0.00 84 1017.0
20260509195543 55 0 0.0 0.0 0.00 0.00 0.00 83 1016.9
20260509195042 55 0 0.0 0.0 0.00 0.00 0.00 83 1016.8
20260509194549 55 0 0.0 0.0 0.00 0.00 0.00 81 1016.8
20260509194042 55 0 0.0 0.0 0.00 0.00 0.00 81 1016.7
20260509193545 55 0 0.0 0.0 0.00 0.00 0.00 80 1016.8
20260509193110 56 0 0.0 0.0 0.00 0.00 0.00 80 1016.6
20260509192548 56 0 0.0 0.0 0.00 0.00 0.00 79 1016.7
20260509192041 57 0 0.0 0.0 0.00 0.00 0.00 78 1016.7
20260509191551 57 0 0.0 0.0 0.00 0.00 0.00 77 1016.7
20260509191043 57 0 0.0 0.0 0.00 0.00 0.00 76 1016.7
20260509190544 58 0 0.0 0.0 0.00 0.00 0.00 75 1016.5
20260509190053 58 0 0.0 0.0 0.00 0.00 0.00 74 1016.5
20260509185542 59 0 0.0 0.0 0.00 0.00 0.00 72 1016.5
20260509185043 59 0 0.0 0.0 0.00 0.00 0.00 72 1016.5
20260509184601 59 0 0.0 0.0 0.00 0.00 0.00 71 1016.5
20260509184044 60 0 0.0 0.0 0.00 0.00 0.00 70 1016.4
20260509183542 60 0 0.0 0.0 0.00 0.00 0.00 69 1016.3
20260509183056 61 0 0.0 0.0 0.00 0.00 0.00 68 1016.2
20260509182547 61 0 0.0 0.0 0.00 0.00 0.00 67 1016.3
20260509182043 61 0 0.0 0.0 0.00 0.00 0.00 66 1016.3
20260509181549 62 0 0.0 2.0 0.00 0.00 0.00 65 1016.2
20260509181042 62 0 0.0 2.0 0.00 0.00 0.00 64 1016.3
20260509180543 62 32 0.0 3.0 0.00 0.00 0.00 63 1016.3
20260509180051 63 32 0.0 3.0 0.00 0.00 0.00 63 1016.2
20260509175542 63 0 0.0 1.0 0.00 0.00 0.00 63 1016.2
20260509175042 63 0 0.0 4.0 0.00 0.00 0.00 62 1016.1
20260509174549 63 0 0.0 4.0 0.00 0.00 0.00 61 1016.2
20260509174041 64 0 1.0 5.0 0.00 0.00 0.00 61 1016.2
20260509173544 64 0 0.0 5.0 0.00 0.00 0.00 61 1016.2
20260509173105 64 0 0.0 5.0 0.00 0.00 0.00 61 1016.3
20260509172542 64 0 0.0 5.0 0.00 0.00 0.00 60 1016.3
20260509172042 64 0 0.0 5.0 0.00 0.00 0.00 60 1016.3
20260509171608 64 32 0.0 5.0 0.00 0.00 0.00 59 1016.4
20260509171044 64 0 0.0 5.0 0.00 0.00 0.00 58 1016.3
20260509170544 65 0 0.0 6.0 0.00 0.00 0.00 58 1016.3
20260509170051 65 34 1.0 7.0 0.00 0.00 0.00 58 1016.3
20260509165542 65 0 1.0 7.0 0.00 0.00 0.00 58 1016.3
20260509165041 65 51 0.0 5.0 0.00 0.00 0.00 58 1016.3
20260509164553 65 23 0.0 4.0 0.00 0.00 0.00 58 1016.3
20260509164042 65 0 0.0 4.0 0.00 0.00 0.00 58 1016.3
20260509163542 64 22 0.0 3.0 0.00 0.00 0.00 58 1016.4
20260509163058 64 0 0.0 0.0 0.00 0.00 0.00 58 1016.6
20260509162542 64 0 0.0 4.0 0.00 0.00 0.00 57 1016.5
20260509162045 64 0 0.0 4.0 0.00 0.00 0.00 58 1016.5
20260509161554 64 0 0.0 0.0 0.00 0.00 0.00 58 1016.5
20260509161041 64 0 0.0 0.0 0.00 0.00 0.00 56 1016.5
20260509160541 64 0 0.0 0.0 0.00 0.00 0.00 56 1016.5
20260509160051 64 0 0.0 0.0 0.00 0.00 0.00 57 1016.5
20260509155541 64 0 0.0 0.0 0.00 0.00 0.00 57 1016.6
20260509155044 64 0 0.0 0.0 0.00 0.00 0.00 56 1016.7
20260509154556 64 0 0.0 4.0 0.00 0.00 0.00 56 1016.7
20260509154042 64 0 0.0 6.0 0.00 0.00 0.00 57 1016.7
20260509153542 65 0 0.0 6.0 0.00 0.00 0.00 56 1016.7
20260509153052 65 53 0.0 8.0 0.00 0.00 0.00 55 1016.8
20260509152548 65 0 2.0 8.0 0.00 0.00 0.00 56 1016.8
20260509152042 66 0 0.0 6.0 0.00 0.00 0.00 57 1016.8
20260509151553 65 0 1.0 6.0 0.00 0.00 0.00 55 1016.8
20260509151041 65 0 0.0 0.0 0.00 0.00 0.00 54 1017.0
20260509150541 65 0 0.0 0.0 0.00 0.00 0.00 53 1017.0
20260509150105 65 0 0.0 0.0 0.00 0.00 0.00 53 1017.0
20260509145542 65 0 0.0 3.0 0.00 0.00 0.00 54 1017.1
20260509145044 65 0 0.0 9.0 0.00 0.00 0.00 55 1017.1
20260509144658 66 0 0.0 9.0 0.00 0.00 0.00 54 1017.1
20260509144047 66 0 1.0 7.0 0.00 0.00 0.00 54 1017.0
20260509143541 66 0 1.0 7.0 0.00 0.00 0.00 54 1017.1
20260509143052 66 0 0.0 3.0 0.00 0.00 0.00 54 1017.2
20260509142545 65 13 0.0 2.0 0.00 0.00 0.00 52 1017.3
20260509142041 65 0 0.0 5.0 0.00 0.00 0.00 51 1017.3
20260509141551 66 0 0.0 8.0 0.00 0.00 0.00 52 1017.3
20260509141041 65 0 0.0 8.0 0.00 0.00 0.00 55 1017.5
20260509140542 66 324 0.0 5.0 0.00 0.00 0.00 53 1017.5
20260509140057 66 0 0.0 5.0 0.00 0.00 0.00 53 1017.6
20260509135546 66 0 1.0 5.0 0.00 0.00 0.00 52 1017.6
20260509135046 66 0 0.0 8.0 0.00 0.00 0.00 53 1017.7